Location: Capannuccia
(43.7000°N, 11.3000°E)
Time: 22:40:45
(UTC+00:00)

Cosmos 1400 Rocket - Pass Details

Date: 07 June 2020
Orbit: 522 x 568 km, 81.2° (Epoch: 14 July)

Event Time Altitude Azimuth Distance (km) Brightness Sun altitude
Rises 00:01:42 0° 356° (N) 2,779 7.7 -22.6°
Reaches altitude 10° 00:04:00 10° 4° (N) 1,877 6.6 -22.5°
Maximum altitude 00:07:56 41° 75° (ENE) 831 3.9 -22.4°
Enters shadow 00:08:58 34° 112° (ESE) 939 3.9 -22.3°
